GFSSW_850_thetae_021.txt.gz
Theta_e
317 319 319 318 318 318 319 319 320 321 322 321 320 316 315 313 313 314 315 314 314 315 316 316 317 317 318 318 317 318 313 315 315 313 315 314 313 312 312 310 310 310 308 309 306
315 316 318 319 318 318 318 318 319 320 321 322 320 317 316 314 314 315 315 315 314 315 315 316 316 317 318 318 318 316 313 316 313 312 313 313 313 313 311 307 304 306 307 306 305
313 315 316 317 318 318 317 317 317 317 318 320 321 319 317 317 316 314 314 313 314 314 316 316 315 316 317 318 316 314 311 314 314 314 314 313 312 312 309 307 307 307 306 304 304
312 312 314 315 316 317 316 316 316 316 316 317 320 320 317 317 319 314 313 312 313 314 318 317 317 315 314 314 316 316 314 314 314 314 313 312 312 311 311 312 312 311 309 305 304
310 311 311 312 313 315 315 315 315 315 315 315 316 319 318 318 318 314 313 313 312 314 320 318 317 313 313 313 315 314 314 314 314 313 313 313 311 310 310 312 311 309 305 305 304
311 310 310 311 312 312 313 314 314 314 314 315 316 318 317 316 319 315 313 312 312 314 319 317 316 314 314 315 313 313 313 313 313 313 312 311 310 311 308 308 307 306 304 303 303
312 311 309 309 310 311 311 312 313 313 313 314 316 318 318 318 318 318 314 311 312 313 318 317 316 314 314 313 313 313 311 310 311 311 311 311 309 308 309 306 305 304 303 302 302
312 311 310 309 309 309 310 311 312 313 313 315 317 317 317 318 318 317 313 311 312 313 317 317 316 313 312 313 312 312 311 313 312 310 311 310 311 310 310 306 303 303 302 301 301
311 310 309 309 308 308 309 310 311 312 313 316 317 317 317 317 317 316 312 311 312 313 316 316 316 313 312 310 310 307 312 312 310 309 310 308 309 308 307 305 302 301 301 300 300
311 310 309 308 308 308 309 310 311 313 316 317 317 317 316 317 316 315 312 312 312 312 316 316 314 310 308 310 315 314 310 307 306 309 309 309 308 307 306 304 303 302 300 300 298
310 309 308 307 307 308 309 310 313 314 317 316 314 317 316 317 317 316 316 315 312 314 316 314 313 313 314 309 310 309 308 306 305 308 310 308 309 310 307 303 302 301 300 300 297
308 308 308 307 307 308 310 313 314 312 313 312 313 314 314 315 315 315 314 313 312 312 312 313 315 313 311 308 309 308 309 307 306 306 306 306 306 306 306 304 304 302 300 300 297
306 307 307 307 307 307 311 313 314 314 311 311 314 315 315 314 315 314 313 312 312 313 312 314 315 310 310 309 309 307 308 307 308 304 303 302 301 304 305 304 305 304 302 301 299
305 306 307 307 306 309 312 312 313 314 304 307 312 314 315 314 312 313 311 312 312 313 311 312 310 309 308 309 307 309 306 307 306 305 305 303 308 304 303 303 299 302 300 299 296
304 305 306 306 308 311 311 311 312 314 305 309 313 313 312 311 311 311 310 312 313 312 312 315 308 307 307 308 306 309 305 305 305 304 303 303 303 302 301 302 303 297 298 297 296
303 304 305 307 307 309 311 310 312 308 308 310 312 310 311 311 311 311 310 311 310 310 308 310 308 305 307 306 306 305 305 304 299 301 304 304 304 303 301 302 301 297 297 296 296
303 303 305 306 308 310 311 308 306 306 307 310 313 310 310 310 310 309 309 309 311 313 312 310 307 306 307 308 306 305 305 309 310 304 310 300 300 308 306 303 301 297 295 295 296
308 305 306 306 308 309 307 307 308 305 306 311 312 311 312 310 310 309 310 310 308 312 309 314 314 306 305 306 308 304 306 311 309 308 311 301 305 306 300 297 296 297 299 295 294
312 309 313 305 308 313 307 305 309 308 307 312 312 312 311 311 312 309 307 309 309 309 314 310 310 301 302 302 304 304 303 303 305 286 296 305 301 302 296 294 292 296 296 293 294
311 310 311 307 309 313 305 309 307 307 309 311 311 311 312 312 310 309 309 308 310 307 310 311 313 301 298 300 297 302 300 303 299 302 302 305 305 309 304 299 291 291 291 292 293
310 310 309 308 310 312 312 309 306 309 311 311 310 308 310 311 310 308 311 309 307 306 306 305 309 303 299 300 302 298 300 299 300 304 306 304 310 303 305 301 292 292 292 292 292
311 310 308 310 311 309 310 305 307 306 308 308 308 310 310 311 310 309 309 311 309 304 307 303 305 306 301 296 296 300 302 302 305 303 299 302 311 298 298 298 293 293 293 293 293
311 309 308 311 310 309 303 305 307 305 307 307 308 309 308 309 311 308 310 309 308 305 305 303 305 304 307 301 295 296 297 300 299 300 307 306 310 296 297 296 294 293 293 293 293
311 308 308 308 309 307 307 308 307 307 306 306 306 307 308 309 310 310 309 307 305 305 306 306 305 308 311 309 299 298 296 297 302 305 308 308 308 308 305 301 293 294 294 293 293
311 309 308 309 309 310 306 307 307 308 306 306 306 307 308 308 308 309 309 305 300 301 303 304 309 304 309 310 303 305 307 296 299 303 307 309 308 308 308 307 305 306 296 292 291
313 312 307 307 307 308 309 309 307 307 306 307 307 306 307 308 307 308 309 308 308 298 298 297 306 304 307 306 303 306 307 307 303 304 305 305 306 307 308 307 305 300 293 290 290
315 313 312 310 308 308 308 307 308 308 307 307 307 307 306 307 308 308 307 308 307 305 297 296 299 300 310 306 305 308 308 307 308 308 307 308 307 307 306 301 297 297 294 292 290

GFSSW_850_thetae_024.txt.gz
Theta_e
315 316 318 318 318 318 317 317 317 318 320 321 318 316 314 314 315 316 316 315 315 315 316 317 316 317 317 318 317 317 311 313 313 311 314 313 312 311 311 311 310 310 309 310 308
313 314 315 317 317 317 317 316 316 316 316 319 320 317 316 314 315 316 315 314 315 316 319 318 317 317 318 317 317 314 311 315 312 310 312 313 313 312 310 308 308 308 309 309 307
311 312 313 314 315 316 317 316 316 315 315 315 319 319 316 316 316 315 315 313 314 317 320 318 318 315 316 317 315 313 310 314 314 313 313 313 312 312 309 306 310 311 309 307 306
310 310 310 311 312 313 315 315 315 315 314 315 315 319 317 316 317 314 314 313 313 316 320 318 319 316 313 314 315 315 313 313 314 314 313 311 312 310 310 312 312 311 310 309 307
312 311 310 310 310 311 312 313 313 314 314 314 315 317 317 317 318 316 313 313 312 315 320 320 318 314 313 313 314 314 313 314 313 313 313 312 311 310 310 312 312 311 309 308 306
313 312 312 311 310 309 310 311 311 312 313 313 314 316 316 316 317 318 313 312 312 314 319 319 318 315 314 314 313 312 312 312 312 312 312 310 309 310 310 311 311 310 308 307 306
314 313 312 311 310 310 309 309 310 311 312 312 314 316 316 316 317 318 315 313 311 313 317 318 317 315 313 312 312 312 311 309 310 311 310 310 308 307 310 309 309 308 307 305 304
313 313 312 311 310 310 309 309 309 310 311 312 314 316 316 317 318 317 317 312 311 313 314 318 317 314 313 312 310 311 309 312 312 310 311 310 310 309 310 309 307 306 305 304 303
313 313 312 311 310 309 309 309 309 310 311 314 315 316 316 317 317 317 315 311 311 312 313 317 316 313 312 310 310 308 312 311 310 308 310 308 309 308 308 306 305 305 305 304 303
313 312 311 310 309 308 308 308 309 311 314 315 316 317 316 316 317 316 313 311 312 312 314 316 314 310 307 310 311 313 312 308 307 309 308 308 308 308 309 306 305 306 304 302 302
312 311 310 309 308 307 308 308 311 311 316 316 315 316 315 316 316 315 314 312 311 311 314 314 313 312 311 310 312 311 309 308 306 305 308 306 307 308 308 305 302 303 302 302 302
310 310 309 307 307 307 307 311 312 311 311 312 312 313 313 315 315 315 315 314 311 310 311 312 313 311 311 309 309 308 309 307 306 305 306 305 306 305 307 307 305 304 302 302 301
307 307 306 306 307 306 307 311 311 312 311 311 311 312 313 312 313 314 314 312 310 310 311 312 313 309 310 309 309 308 307 308 308 304 303 301 305 303 304 304 306 305 306 304 303
305 305 304 306 306 307 309 311 311 312 302 305 311 313 314 314 313 313 312 311 311 310 310 312 310 309 309 310 307 310 306 306 306 305 307 303 311 305 305 306 302 303 304 305 303
304 304 303 305 307 309 310 311 311 313 304 307 311 312 314 311 310 310 310 310 311 311 310 313 308 308 309 309 305 309 304 305 304 304 302 303 304 304 301 304 307 305 305 305 304
308 305 303 305 306 307 308 310 311 304 307 307 311 310 310 310 310 310 309 310 309 310 308 309 307 305 308 305 305 303 305 301 298 300 304 306 306 305 302 303 303 302 305 304 303
313 309 304 305 308 308 308 309 305 304 305 307 311 309 310 309 309 308 308 307 309 312 311 311 307 306 307 308 305 304 306 310 308 305 311 301 301 309 305 303 303 303 304 304 302
313 311 309 308 308 309 308 306 307 304 304 309 311 310 311 309 309 308 308 309 306 310 309 312 312 306 304 308 308 303 307 310 307 307 310 299 306 308 301 304 302 299 300 300 300
314 312 310 308 308 311 305 304 306 307 304 309 311 313 311 311 311 309 307 308 308 308 314 311 311 302 302 301 303 304 305 304 307 289 298 307 304 303 301 300 296 295 298 299 299
314 312 310 309 309 313 305 306 304 306 306 309 308 309 310 310 309 309 308 307 310 307 310 311 313 302 299 300 297 301 300 305 303 306 303 307 306 309 308 306 301 294 295 301 298
315 311 310 308 310 312 311 307 304 308 309 309 308 307 308 310 309 308 311 309 307 306 307 308 311 307 300 301 301 299 301 300 302 303 306 305 310 304 306 304 303 298 301 303 300
313 311 309 310 311 309 309 304 307 306 308 307 308 306 306 308 309 308 309 311 309 305 308 306 308 312 309 297 295 300 302 302 307 305 298 301 311 302 303 301 300 297 302 302 301
313 312 308 310 309 309 304 304 306 304 305 306 305 307 307 307 309 308 309 309 308 306 306 304 308 309 309 302 298 298 300 300 300 301 304 305 311 301 300 299 298 297 300 301 301
313 310 307 309 309 308 307 307 307 307 306 305 304 305 306 306 308 308 307 307 306 307 306 308 307 309 311 309 303 301 299 300 304 308 309 308 309 309 308 308 308 305 301 302 301
313 310 308 308 309 308 306 306 307 307 306 306 305 305 306 306 306 307 307 306 301 302 304 305 310 308 309 309 301 302 304 302 301 305 308 309 309 309 308 308 308 308 307 300 297
316 312 309 309 309 309 309 309 308 306 305 305 306 305 305 306 306 306 306 306 308 297 300 299 308 308 309 308 305 307 308 308 302 304 304 306 307 309 309 309 308 307 306 301 299
314 316 312 310 309 309 310 309 310 309 308 306 306 306 306 305 306 306 306 305 305 305 299 297 301 299 309 306 304 306 308 309 309 309 307 306 307 308 307 307 306 306 303 303 301

GFSSW_850_thetae_027.txt.gz
Theta_e
314 314 315 316 317 317 316 316 316 315 316 319 318 314 313 314 315 316 315 315 316 317 318 317 316 317 317 317 317 317 312 314 314 312 314 311 311 311 310 311 310 311 311 310 310
311 312 312 313 314 315 316 316 315 315 314 315 319 317 316 314 315 316 314 314 316 319 320 318 318 317 317 317 316 313 311 313 312 310 312 312 311 311 310 308 309 310 311 310 309
310 310 310 311 311 312 313 314 314 314 314 314 315 318 316 316 316 315 315 313 315 319 321 319 319 316 315 316 315 312 311 312 313 313 313 312 311 311 309 308 312 313 313 310 309
312 312 311 311 310 310 311 311 312 312 313 313 314 316 317 315 316 316 314 313 313 317 320 320 319 316 313 314 314 315 312 313 314 314 313 311 312 310 310 313 313 313 312 311 310
313 313 312 312 312 311 310 310 310 311 311 312 313 314 316 315 317 317 313 312 312 314 319 320 319 316 314 312 313 313 312 313 313 313 313 312 311 310 310 313 312 311 311 311 310
314 314 314 313 312 311 311 310 310 310 310 311 312 313 315 315 315 318 315 313 312 312 318 319 318 316 314 314 312 312 312 312 312 312 312 310 310 310 311 312 311 311 311 310 310
314 314 314 313 313 312 311 310 310 310 310 311 312 313 315 314 315 316 317 313 312 311 315 318 318 315 313 311 312 311 311 310 309 310 310 310 309 307 312 311 310 310 310 309 309
314 314 313 313 313 312 311 310 310 310 310 310 312 314 315 314 316 316 317 315 311 311 313 317 317 314 312 312 310 311 309 312 311 309 310 310 313 309 311 309 310 310 309 308 308
313 313 313 313 312 311 311 309 309 309 310 311 313 314 315 315 317 317 316 313 311 311 312 315 316 313 312 310 311 308 311 312 310 308 309 308 311 309 311 309 308 309 308 308 307
311 312 312 312 311 310 309 309 309 309 312 314 315 315 315 315 316 316 316 312 311 311 313 315 314 309 307 310 313 310 311 309 309 309 307 307 308 309 309 309 309 309 309 306 306
308 310 311 311 310 308 308 308 310 310 313 314 315 316 315 315 316 315 315 312 311 311 311 313 312 312 311 309 311 312 311 310 308 305 307 306 308 309 309 306 305 306 306 306 308
305 307 309 309 308 307 306 307 310 310 310 311 311 312 314 314 315 315 314 312 311 310 311 311 313 310 310 309 309 308 310 309 307 305 305 305 307 307 307 309 309 307 305 305 305
305 305 306 307 306 306 306 307 310 311 311 311 311 311 311 311 313 313 314 313 310 308 309 310 311 308 310 308 309 308 308 309 310 304 302 301 303 303 304 305 307 306 307 306 307
307 305 304 304 305 306 308 310 310 311 301 304 308 312 313 313 312 312 313 312 309 308 308 310 309 310 310 310 307 311 307 307 307 306 308 303 311 304 306 306 306 307 307 309 309
312 308 304 304 306 307 308 310 310 310 304 306 309 310 314 312 309 309 310 310 308 309 309 311 308 309 310 310 307 310 304 304 304 304 302 304 304 307 301 306 307 307 308 309 308
313 312 309 304 304 307 307 309 311 303 305 306 310 310 310 310 309 309 309 309 309 310 308 309 307 306 309 303 305 303 304 302 298 300 305 308 307 305 304 305 306 305 309 308 308
314 313 312 306 306 307 307 309 303 301 304 306 310 308 309 309 309 308 307 307 308 311 311 310 307 305 306 307 305 305 308 312 309 306 311 300 303 309 306 303 305 307 308 308 307
316 314 313 310 306 308 308 306 304 303 303 308 310 309 310 308 309 308 307 308 306 309 308 310 312 305 304 308 309 304 308 312 308 308 309 299 305 308 303 306 306 305 307 305 306
318 316 314 314 307 310 306 305 303 304 303 306 310 311 310 310 309 308 307 307 307 308 313 310 310 302 302 301 305 304 307 306 306 289 301 308 306 305 303 302 300 301 301 303 304
318 315 314 316 308 311 303 305 303 304 303 307 307 308 306 309 308 308 307 306 309 307 311 311 314 304 299 299 298 302 301 306 304 307 305 309 308 309 307 306 304 302 300 303 306
318 312 313 315 309 311 310 306 303 306 307 307 305 304 305 307 308 307 309 307 307 307 308 309 312 306 301 301 302 301 301 300 303 304 307 310 310 303 306 305 305 303 306 305 307
315 313 312 310 310 310 309 305 307 305 306 305 305 305 303 305 307 306 308 309 309 306 308 307 310 312 309 298 296 300 303 304 307 306 300 303 312 306 306 304 302 304 305 306 307
314 313 310 309 312 310 306 304 306 303 304 304 305 305 304 305 307 306 307 308 308 307 307 306 310 313 310 302 298 300 299 300 301 302 307 306 310 305 302 301 302 303 306 306 306
314 310 307 308 310 311 311 309 307 306 306 304 304 304 305 305 306 307 306 306 306 307 308 309 309 312 311 309 303 303 300 302 304 309 309 308 309 309 309 307 305 304 307 306 305
315 311 306 307 308 310 310 309 311 309 305 305 304 305 305 306 306 306 305 304 303 305 305 306 310 310 311 311 306 304 304 303 303 306 308 309 308 308 309 308 308 308 308 307 306
315 312 308 309 307 309 310 311 311 312 306 306 307 304 305 306 306 307 305 305 306 298 301 301 310 309 310 308 306 308 307 308 307 306 305 306 306 307 307 307 307 308 308 307 306
313 315 313 311 309 309 309 309 311 309 310 308 307 306 306 305 306 307 307 305 304 303 301 301 303 302 309 308 306 306 307 308 308 308 308 308 308 308 307 306 306 307 307 306 306

GFSSW_850_thetae_030.txt.gz
Theta_e
312 312 313 313 314 314 315 315 315 314 314 316 318 315 313 313 314 315 315 315 316 318 318 317 316 316 317 317 317 316 320 321 321 318 319 314 316 311 311 312 311 311 312 312 311
310 310 310 311 311 311 312 312 313 314 314 314 315 318 316 315 314 315 315 314 315 318 319 317 317 317 318 317 317 319 320 319 318 317 318 315 315 315 313 313 312 311 312 312 311
312 312 311 311 310 310 310 310 311 311 312 313 313 315 318 316 316 316 316 313 315 317 318 316 317 317 318 317 317 317 320 317 317 315 314 315 314 313 314 316 315 315 313 312 310
313 313 313 313 313 312 311 310 310 310 311 311 312 313 315 316 318 317 315 313 313 316 319 318 317 317 319 319 315 319 315 315 316 314 313 315 313 313 313 317 316 314 313 312 311
314 314 314 314 313 312 312 311 311 310 310 310 311 312 314 315 316 317 315 313 312 313 318 319 318 317 320 317 315 317 316 314 314 313 313 312 314 314 313 314 313 313 312 312 311
314 314 314 314 314 314 313 312 311 311 310 310 310 311 313 315 314 315 317 314 313 312 314 319 319 317 316 317 316 315 314 315 314 314 313 313 315 311 316 314 313 312 312 311 311
314 314 314 314 314 314 314 313 312 311 310 309 310 311 313 314 313 314 316 315 312 311 312 317 318 316 314 315 312 312 316 316 314 313 314 311 315 314 316 313 312 311 311 310 311
314 314 314 314 314 314 313 313 312 311 310 310 310 312 313 313 314 315 315 316 313 311 312 315 317 315 313 312 313 316 315 319 316 312 312 312 319 319 315 310 312 312 309 310 311
311 312 313 313 313 313 313 313 312 311 310 310 311 312 315 313 315 315 316 315 313 311 311 314 316 314 313 318 319 317 319 318 317 313 312 313 319 317 313 310 312 313 311 308 309
306 307 309 311 312 313 312 312 311 310 310 312 313 315 314 314 315 316 316 314 311 311 312 314 315 318 316 318 317 317 317 317 317 315 312 314 315 316 315 310 312 313 313 311 307
306 306 306 308 310 310 311 310 309 309 310 312 314 315 314 314 315 315 315 313 310 311 314 314 317 318 318 318 317 316 316 318 319 311 313 316 315 315 315 313 312 312 312 312 309
309 307 306 305 307 308 308 307 307 309 309 310 310 312 313 315 315 315 314 312 312 314 313 315 316 317 315 315 315 316 317 319 318 310 310 314 313 313 313 313 313 313 313 312 310
309 309 307 305 305 306 306 306 308 310 312 311 310 310 311 310 313 313 313 312 313 313 314 315 316 311 313 314 315 316 317 318 317 312 308 308 313 312 312 309 310 311 311 311 309
312 309 309 305 305 305 307 309 310 311 309 309 308 310 311 312 311 311 312 312 312 314 313 315 313 313 314 316 315 317 315 314 314 314 318 309 318 316 314 313 311 312 314 309 309
316 313 308 307 305 307 308 309 309 306 310 308 308 309 313 312 309 309 310 310 313 312 313 315 312 312 314 315 313 317 307 310 309 312 310 315 313 315 308 310 312 313 313 311 309
317 315 313 309 304 305 307 309 310 307 306 308 311 311 313 310 309 308 308 309 309 312 311 314 308 310 314 306 307 306 309 308 306 310 315 316 315 314 313 312 312 313 313 310 310
319 316 315 313 307 305 306 308 308 306 305 308 312 311 312 312 311 309 310 310 313 314 315 313 312 308 307 311 307 308 314 317 320 319 318 310 310 312 312 312 312 314 314 309 309
320 319 318 315 311 307 308 309 306 309 308 309 311 310 313 312 312 311 310 312 310 310 312 316 316 310 309 314 316 311 315 318 320 317 316 307 311 313 311 311 311 309 308 307 307
321 319 317 318 315 308 307 309 307 308 308 307 311 313 313 311 311 311 312 313 313 311 315 314 315 305 304 305 307 309 313 311 317 310 314 316 316 313 309 309 307 306 306 307 307
322 318 316 319 316 309 307 307 307 307 305 309 309 311 311 312 311 312 312 312 313 309 312 313 315 308 300 302 301 307 306 312 313 320 319 316 315 315 314 311 310 308 307 310 309
319 313 316 317 313 311 309 308 307 305 306 308 309 309 309 310 312 311 312 311 311 310 309 312 315 310 304 306 310 305 308 306 307 311 316 316 314 312 311 310 310 310 309 310 309
316 314 314 314 310 310 309 311 308 306 305 307 307 308 308 308 309 311 311 311 310 308 310 311 313 316 314 302 302 305 309 310 313 314 311 313 315 306 311 310 309 309 309 309 310
316 314 312 312 314 311 310 310 309 309 307 306 307 307 308 307 307 309 309 309 308 310 311 309 313 317 315 304 300 306 305 307 311 311 313 315 314 311 311 311 307 308 309 308 309
316 312 307 308 311 312 313 313 311 309 310 307 305 306 306 306 307 308 309 308 308 309 310 310 313 314 313 313 309 309 307 306 308 312 313 313 313 312 312 311 311 311 310 308 308
314 313 309 306 308 310 312 313 314 311 307 307 306 307 308 308 308 308 308 308 305 306 308 310 312 312 312 312 311 310 310 309 307 309 311 312 311 312 311 311 311 310 310 309 309
310 313 306 309 309 308 309 312 314 315 312 309 309 310 307 308 309 315 309 308 308 302 306 306 311 311 311 311 311 311 311 311 311 311 311 310 309 309 309 308 309 309 309 308 308
305 308 308 310 309 309 309 309 311 312 313 312 311 310 311 309 309 309 309 308 308 309 308 307 308 310 312 311 310 310 310 310 310 310 310 310 311 311 311 310 310 310 309 309 308

GFSSW_850_thetae_033.txt.gz
Theta_e
311 311 311 311 311 311 312 312 313 313 314 314 316 317 313 313 314 315 315 315 315 316 318 317 316 316 318 320 319 318 322 324 324 322 322 318 318 316 315 317 315 315 316 316 314
311 311 311 310 310 310 310 310 311 311 312 313 313 315 317 315 315 314 316 315 315 317 319 317 318 317 320 321 320 321 324 324 321 321 320 319 318 319 315 316 316 315 313 314 312
313 313 313 313 313 312 312 311 310 310 310 311 312 313 314 317 316 318 316 315 314 316 319 317 318 318 321 321 321 322 324 321 320 318 318 318 318 317 317 319 319 318 317 312 311
313 313 314 314 314 313 313 312 312 311 311 310 310 311 313 316 319 317 316 315 313 314 318 317 317 318 321 322 321 321 321 319 319 317 317 317 317 317 316 318 318 318 318 315 312
314 314 314 314 314 314 314 314 313 312 311 311 310 310 312 316 317 315 316 315 313 312 315 317 319 320 322 321 319 319 321 318 317 316 316 316 316 317 317 318 317 316 315 314 312
314 314 314 314 314 314 314 314 314 313 312 311 310 310 312 316 315 314 316 316 313 312 312 316 319 318 319 319 319 318 318 318 318 317 316 316 317 315 318 318 317 317 314 313 312
314 314 314 314 315 315 315 314 314 314 313 312 310 310 313 315 314 313 314 316 315 313 313 313 317 318 318 320 317 316 318 320 319 317 317 315 317 317 317 316 316 316 315 313 313
311 313 314 314 314 314 314 314 314 314 313 311 310 311 315 314 312 313 313 315 315 313 311 311 315 317 317 315 317 318 319 320 320 317 315 315 320 320 319 317 315 316 316 314 313
306 307 307 310 311 313 313 313 313 313 313 310 310 312 315 314 313 313 315 314 314 311 311 313 315 317 316 318 320 321 321 320 320 317 317 316 320 320 318 316 316 316 316 316 314
309 307 307 306 307 308 310 311 312 312 311 311 312 315 314 314 314 315 315 314 312 311 313 314 316 318 319 319 319 319 319 319 319 319 316 317 317 318 318 318 318 317 316 316 316
311 311 309 307 306 306 307 309 312 313 310 315 317 317 315 314 315 314 315 313 312 313 316 316 317 319 319 319 319 319 318 318 318 318 317 318 318 318 318 318 318 317 317 316 316
313 310 310 309 307 306 306 307 307 308 310 311 310 311 312 313 316 315 314 313 313 316 316 317 317 318 318 318 318 318 318 318 318 318 315 317 317 318 318 318 317 316 316 315 315
320 317 312 309 306 305 305 306 306 308 313 312 310 311 311 310 313 315 314 313 315 316 317 317 317 316 316 317 317 317 318 318 318 319 314 314 316 317 317 316 315 315 314 314 314
322 321 320 309 306 306 306 307 309 310 310 312 309 312 310 312 311 312 313 313 315 315 315 316 316 316 316 316 316 317 317 318 319 318 319 315 318 318 317 317 317 316 315 315 315
322 321 321 318 307 311 308 309 309 306 317 311 310 309 313 312 311 310 311 311 314 314 315 315 317 315 316 316 316 317 312 315 316 317 318 317 318 317 316 316 315 315 314 315 315
322 321 320 319 314 306 307 308 309 310 313 310 312 312 314 312 311 308 310 310 311 313 314 315 311 314 316 311 313 311 313 313 313 315 318 317 317 316 317 314 314 314 314 314 313
322 322 320 319 316 310 306 308 309 309 309 312 313 313 314 315 313 311 311 311 313 315 316 317 316 314 311 314 310 311 316 319 321 321 319 317 316 317 316 314 314 314 314 314 311
322 322 322 320 318 315 307 309 309 312 312 311 312 313 315 315 315 313 313 314 313 314 315 317 317 315 311 315 318 313 317 320 322 319 318 316 317 317 317 315 314 314 313 311 309
323 322 319 320 320 317 308 309 314 316 313 311 312 312 313 314 314 315 314 316 315 313 315 315 315 308 309 309 314 314 315 315 319 321 320 317 318 319 315 314 313 312 310 310 309
320 318 319 319 318 315 308 311 315 313 311 310 311 312 312 313 313 313 314 315 315 314 315 315 316 313 304 306 306 310 310 315 314 321 321 318 318 317 316 316 314 313 311 311 311
317 317 317 316 316 310 308 309 315 312 309 308 310 312 313 314 314 313 313 314 314 315 313 314 315 313 306 308 313 308 311 309 310 316 318 317 315 315 315 315 314 314 312 311 312
317 314 315 316 310 308 307 311 313 314 309 307 308 309 310 311 311 311 312 313 312 312 312 312 315 316 315 313 308 311 313 313 314 315 313 314 315 311 314 313 312 312 311 311 310
315 315 314 314 315 310 308 311 312 315 312 307 308 308 310 308 308 310 312 312 311 311 312 311 314 316 314 310 305 308 310 310 313 313 314 317 316 314 315 313 311 311 311 310 310
311 314 308 309 313 314 311 313 314 314 314 312 309 308 309 309 309 310 312 312 311 310 310 310 312 313 315 315 314 311 310 310 310 313 313 313 313 313 313 313 314 313 313 312 312
308 313 311 309 310 312 313 314 315 315 314 313 313 311 311 313 313 311 310 310 310 309 308 310 312 312 313 313 313 312 311 311 311 311 312 313 313 313 313 314 314 313 311 311 310
304 308 308 308 311 310 312 313 314 314 315 316 312 312 312 311 313 316 314 312 311 308 308 309 311 311 311 311 312 312 312 312 312 312 312 311 312 312 311 311 311 310 311 311 310
302 302 299 302 307 310 311 313 313 314 314 315 315 312 313 311 310 312 314 314 310 310 308 307 308 310 312 312 313 313 313 312 313 313 313 312 312 313 312 312 312 312 312 311 310

GFSSW_850_thetae_036.txt.gz
Theta_e
310 310 310 310 310 310 310 310 311 311 312 313 313 315 317 314 313 314 315 316 315 316 318 318 317 317 318 321 319 319 320 323 325 323 322 318 318 317 318 317 317 317 317 317 318
312 312 312 312 312 312 312 311 311 310 310 311 312 313 314 316 316 316 316 316 314 315 318 318 318 318 320 321 321 321 324 325 321 320 320 320 318 318 316 316 317 317 316 315 315
313 313 313 313 313 313 313 312 312 312 311 311 310 311 312 314 315 318 318 318 315 314 317 318 318 319 320 321 322 322 323 321 321 320 318 318 319 318 317 316 318 317 316 316 314
313 314 314 314 314 314 314 314 314 313 312 311 311 310 311 313 319 318 317 316 315 314 315 318 318 319 320 322 322 320 321 321 320 318 317 317 318 318 318 317 319 319 319 318 316
314 314 314 314 314 314 314 314 314 314 314 313 311 310 310 315 316 316 316 315 314 313 313 317 318 319 321 322 321 319 319 319 319 318 317 317 316 316 317 317 317 317 317 317 317
314 314 314 314 314 314 315 315 315 315 314 314 313 310 310 316 315 315 315 315 314 312 312 314 318 320 319 319 319 318 318 318 319 318 316 315 316 317 317 318 317 318 317 317 316
311 312 313 313 313 314 314 314 314 315 315 314 313 310 311 313 314 314 313 313 315 313 312 314 316 317 319 319 319 317 316 317 317 318 316 317 315 315 317 317 317 317 317 317 316
307 307 307 307 308 309 311 312 313 313 314 314 312 310 312 314 314 315 314 313 314 314 312 314 313 316 317 317 317 316 317 318 319 317 315 315 315 317 318 317 317 317 316 316 316
310 309 309 308 307 307 307 308 309 311 312 313 311 311 316 315 315 314 313 313 314 314 312 311 313 317 317 316 315 317 317 318 319 317 314 313 315 317 319 318 317 316 316 316 317
311 311 311 311 310 308 308 307 307 308 310 311 312 316 314 315 315 314 314 314 313 312 312 312 314 316 315 315 317 318 318 317 317 315 315 314 314 314 317 318 318 318 318 318 317
320 317 312 309 310 309 309 307 311 313 311 313 317 315 316 315 314 314 314 314 312 313 314 315 315 315 316 316 317 317 317 317 317 317 316 315 315 315 317 317 317 317 318 318 317
323 323 322 319 309 309 307 308 310 308 309 308 310 312 315 315 315 314 314 313 313 314 314 316 316 316 316 316 316 316 316 316 316 315 315 314 315 315 315 316 316 317 317 317 316
321 322 322 321 318 308 306 306 306 307 313 311 310 311 310 311 313 314 314 313 314 315 315 315 316 316 315 315 315 315 315 315 315 315 312 314 313 313 313 315 315 316 316 316 315
322 322 321 322 316 308 310 307 308 309 310 312 311 312 311 312 311 313 314 314 314 314 314 314 315 315 315 315 314 314 314 315 315 315 315 314 314 314 315 313 313 315 316 316 315
322 322 321 321 320 314 308 308 309 307 311 313 309 310 313 312 310 311 312 312 313 313 314 314 314 315 315 315 314 315 312 314 315 315 315 316 314 314 313 313 313 312 316 316 315
322 322 321 321 321 319 307 308 308 309 310 312 311 312 313 312 311 309 310 310 311 313 312 312 312 313 315 311 313 311 313 313 312 312 313 313 314 313 312 313 313 312 315 313 314
324 323 322 321 319 320 314 307 309 309 313 313 313 313 313 314 313 310 310 310 311 313 313 313 313 312 311 313 310 311 315 315 316 314 316 312 313 315 314 312 311 310 313 313 314
323 323 322 322 321 321 313 310 309 316 315 312 312 314 314 314 314 312 312 312 311 311 313 315 315 313 310 312 315 311 314 315 315 313 314 313 312 312 313 313 314 315 313 313 312
322 322 322 322 320 315 309 309 318 319 316 316 315 312 312 313 314 314 312 313 313 311 313 313 313 309 309 311 313 312 312 314 314 306 310 312 312 313 312 312 310 310 313 312 311
319 319 319 319 319 314 308 311 315 317 315 313 311 312 312 312 312 313 313 313 313 312 312 314 314 310 306 306 307 309 308 312 312 309 311 314 314 314 312 311 310 309 309 312 312
314 317 317 316 317 310 310 309 313 314 316 314 315 310 309 310 311 312 312 313 313 314 312 313 313 311 306 306 309 306 308 308 310 312 315 317 314 311 312 313 311 309 312 312 312
311 314 315 316 312 311 311 310 313 313 315 315 308 309 311 310 311 309 309 311 311 312 312 312 313 315 312 309 307 309 310 310 311 312 310 312 314 310 311 311 310 309 311 311 311
310 313 313 315 316 315 308 311 312 314 314 314 315 310 311 311 312 311 312 311 313 312 311 310 312 314 313 312 305 308 308 310 311 310 312 312 312 312 311 309 310 309 310 311 312
309 312 311 310 313 315 316 312 312 312 312 313 314 314 314 313 312 313 313 311 311 311 311 311 312 313 314 313 312 310 309 308 309 311 312 311 311 311 311 312 312 312 312 312 313
305 309 311 311 308 310 313 314 314 313 313 313 314 315 313 314 313 313 311 311 311 311 310 309 311 310 310 311 311 311 311 312 312 309 310 310 310 311 311 311 311 312 312 311 311
301 305 304 302 304 306 310 310 314 313 314 314 314 314 314 315 314 315 314 312 312 310 311 309 311 310 312 310 310 311 310 311 311 312 312 310 309 309 310 310 310 311 311 310 310
298 299 298 301 303 304 307 309 308 304 306 312 311 314 314 314 314 313 313 314 313 314 313 308 309 310 311 310 310 312 311 310 310 310 310 311 311 311 311 311 311 311 311 311 311

GFSSW_850_thetae_042.txt.gz
Theta_e
311 311 312 312 312 312 312 312 312 312 311 311 310 310 311 312 313 315 316 315 315 316 316 318 317 317 317 319 319 318 311 314 316 319 318 317 316 317 317 317 317 317 317 317 318
312 312 312 313 313 313 313 313 313 313 313 312 312 312 311 310 311 312 313 314 315 315 314 318 318 318 318 319 320 316 311 313 315 317 316 316 316 317 316 315 315 317 317 317 317
312 313 313 313 313 314 314 314 314 314 314 314 313 312 311 311 312 313 317 316 315 316 314 317 318 318 317 319 319 317 315 315 319 318 318 316 315 317 315 313 316 317 318 317 317
313 313 313 313 314 314 314 314 314 315 314 314 314 314 313 311 310 317 315 314 315 317 314 314 317 317 317 317 319 317 317 317 319 320 317 316 317 315 315 317 318 318 318 317 316
313 313 313 313 313 314 314 314 314 314 314 314 314 314 313 311 313 314 313 314 315 315 316 313 316 318 316 316 317 316 317 319 319 319 317 317 315 314 315 317 316 317 317 317 317
308 308 308 308 309 309 310 311 312 312 313 313 314 314 312 311 314 314 314 315 315 314 314 313 315 317 317 317 315 316 316 316 317 317 316 316 314 315 317 317 317 316 316 316 317
309 309 310 310 310 310 310 309 308 308 308 309 311 312 311 314 315 314 314 314 314 313 313 312 314 316 316 316 317 317 314 312 315 316 313 315 313 311 317 316 316 316 316 316 316
312 312 312 313 313 314 314 314 314 312 310 308 307 309 310 313 314 314 313 313 313 313 312 311 313 314 315 315 314 314 312 313 312 312 314 314 314 312 317 316 317 317 316 316 317
314 315 316 316 314 312 311 312 314 314 314 310 308 309 310 312 314 314 314 314 314 313 312 311 312 314 314 311 310 309 308 310 312 312 312 311 313 314 316 316 316 317 317 317 316
322 322 322 322 322 321 320 314 310 311 312 309 311 312 311 312 314 314 314 314 313 312 311 311 312 311 310 308 310 309 310 310 311 313 311 311 311 312 315 314 313 316 317 317 317
323 322 322 322 322 321 321 315 310 311 312 312 311 312 313 314 315 315 314 313 312 312 309 312 309 310 310 310 311 309 309 310 310 311 312 311 312 313 314 313 311 314 314 316 316
323 322 322 322 323 320 319 310 307 307 307 311 310 310 312 313 315 314 313 312 311 310 310 310 310 310 310 309 311 310 311 311 311 311 310 311 312 311 310 313 314 313 313 314 316
323 322 323 323 323 320 319 311 307 308 309 310 311 308 308 308 310 312 313 312 310 310 309 311 311 311 310 311 312 311 311 312 312 311 309 308 312 309 309 312 313 314 314 314 315
322 322 322 322 322 321 317 310 307 307 304 306 310 310 310 311 310 312 312 312 310 310 308 309 311 311 311 312 312 313 311 312 311 311 312 310 313 311 310 310 310 312 313 314 316
323 323 322 321 321 321 319 312 307 308 316 311 309 310 311 309 309 310 311 311 310 311 311 309 311 310 311 312 310 313 311 310 310 309 311 311 311 313 309 310 311 312 313 316 316
324 324 323 322 321 321 321 313 308 308 314 309 309 310 310 311 310 309 311 310 310 310 308 309 310 310 309 310 308 310 312 310 307 308 312 311 311 314 309 311 310 311 313 316 316
320 321 320 320 318 318 321 317 317 314 311 312 310 311 310 310 310 308 308 308 309 309 307 308 308 309 310 311 309 311 311 311 310 310 314 309 311 313 311 309 309 310 313 316 317
319 318 319 319 318 318 320 316 319 315 310 312 311 310 311 310 310 309 308 308 306 308 308 309 312 309 308 310 310 308 311 312 312 313 313 306 311 312 310 311 312 313 314 314 314
317 318 319 320 318 317 320 319 320 317 316 317 316 317 310 310 309 309 307 308 307 307 310 309 310 309 308 309 310 309 311 311 311 300 307 310 310 311 308 307 306 308 310 311 313
311 312 313 316 318 319 314 319 316 315 316 314 318 316 315 309 309 310 309 308 309 306 308 309 311 307 306 306 306 308 308 311 310 311 310 311 311 313 311 310 311 307 308 313 312
307 308 311 314 315 314 316 315 316 316 316 316 317 318 315 311 309 312 313 310 308 309 306 309 311 311 306 307 310 307 308 308 308 312 315 315 314 313 311 308 307 306 310 310 311
304 308 309 314 313 312 315 315 315 313 314 314 314 316 317 317 318 317 316 311 309 309 310 309 312 314 313 309 305 307 308 309 312 312 309 313 314 312 311 309 307 306 310 310 310
307 308 309 313 313 314 313 313 314 314 314 314 314 312 314 315 316 315 315 314 314 313 312 310 312 317 314 311 310 308 310 310 310 310 312 312 312 312 312 311 310 309 312 312 312
304 304 309 311 311 311 311 312 313 313 313 313 313 313 314 314 314 315 315 313 312 312 313 313 314 315 316 314 312 311 309 308 310 311 312 312 311 310 311 311 310 311 311 311 311
300 302 305 308 308 309 310 310 310 311 311 311 312 312 312 313 312 313 312 310 310 311 310 312 314 314 313 314 314 314 314 313 313 313 314 314 312 311 311 311 310 310 311 310 309
298 300 300 300 302 305 306 308 310 309 309 309 310 302 304 305 306 306 304 306 305 303 303 303 310 309 312 311 311 313 313 313 313 313 314 313 313 312 312 312 312 312 311 311 312
295 296 297 298 298 299 300 303 304 302 301 303 299 298 299 299 298 297 298 298 299 300 300 301 304 306 308 310 312 313 312 312 312 312 312 313 312 311 311 310 310 310 305 303 303

GFSSW_850_thetae_045.txt.gz
Theta_e
311 311 312 312 312 313 313 313 313 313 312 312 312 311 311 310 311 311 312 315 315 315 316 318 317 316 317 318 319 318 312 313 314 317 317 316 315 317 317 316 316 317 317 317 317
311 312 312 312 313 313 313 313 313 314 314 313 313 313 312 312 312 313 313 312 315 315 314 316 317 317 317 318 319 315 308 311 312 315 315 316 315 316 316 315 315 317 317 317 317
312 312 313 313 313 313 314 314 314 314 314 314 314 314 314 313 313 313 316 315 313 315 314 314 317 317 317 318 318 315 313 312 316 319 317 316 314 316 315 311 315 317 318 317 317
313 313 313 313 313 314 314 314 314 314 314 315 315 315 314 313 310 314 315 313 313 315 315 314 316 316 315 315 318 317 317 316 317 319 317 314 316 314 315 317 317 317 317 317 316
313 313 313 312 312 313 313 313 313 314 314 314 314 314 314 312 314 315 314 313 313 314 316 314 315 316 315 314 315 315 316 318 318 318 318 316 314 313 316 318 318 317 316 316 316
307 307 308 308 308 309 309 309 309 309 309 310 311 312 312 310 314 314 314 314 314 315 315 314 314 315 316 315 314 315 315 314 315 316 315 315 315 314 317 317 316 316 316 316 316
309 310 311 311 312 312 313 313 313 312 311 308 307 308 309 312 314 315 315 314 314 314 313 313 313 315 315 314 315 315 312 310 311 315 312 314 313 311 316 316 316 315 315 316 316
312 313 313 314 314 314 313 313 313 314 314 312 309 307 308 310 311 313 313 313 313 313 312 311 311 313 314 314 313 311 310 311 311 310 313 314 313 312 315 314 316 317 318 317 318
314 317 319 320 320 320 320 319 317 313 311 312 309 308 309 312 310 311 312 313 313 313 312 311 311 313 313 309 309 307 308 307 309 311 312 310 311 311 315 314 315 317 318 318 317
321 322 322 322 322 322 321 320 318 313 311 310 309 310 312 313 312 313 314 313 313 312 311 311 312 309 308 307 309 308 308 307 308 310 310 310 310 311 314 313 313 315 317 317 318
323 323 322 322 322 322 321 320 313 312 310 313 313 312 311 312 314 314 314 313 312 311 308 311 308 309 310 308 310 307 307 307 308 309 310 310 311 311 313 313 312 312 313 315 316
323 323 323 323 323 322 321 316 309 309 309 316 316 311 312 312 314 314 313 312 311 310 308 309 309 308 308 308 309 309 309 309 310 309 307 308 310 310 309 311 313 314 313 313 314
322 322 322 322 322 321 320 314 308 307 308 312 313 310 310 308 309 311 312 311 310 309 308 309 310 310 308 309 309 309 309 310 310 309 308 307 311 309 308 310 312 313 313 313 313
324 323 323 322 322 321 318 318 307 307 306 308 308 309 310 310 310 311 311 311 309 309 307 308 309 309 309 310 309 310 308 309 310 310 312 309 311 309 310 308 308 310 312 314 315
324 324 323 323 321 321 320 319 309 310 317 312 308 310 311 309 309 310 310 311 309 310 309 308 311 309 309 310 309 310 309 309 308 307 309 309 309 312 309 308 309 310 312 314 316
320 322 324 324 322 321 319 321 311 312 318 311 308 310 309 310 310 309 310 310 309 309 307 308 309 309 308 308 307 309 310 308 305 306 311 310 309 314 308 309 309 309 312 315 316
321 321 321 322 320 319 318 319 317 320 314 312 309 309 308 308 309 307 308 309 309 309 310 307 308 308 308 310 309 310 310 310 309 310 314 307 309 313 309 309 307 308 313 315 315
321 320 320 320 320 319 318 318 321 317 313 311 311 309 312 309 310 308 307 307 305 307 306 308 313 308 307 309 309 308 309 311 310 311 313 306 310 312 308 309 311 310 311 312 313
317 319 319 319 318 319 319 319 319 319 316 318 317 318 316 310 310 309 306 307 307 305 311 308 309 307 307 308 309 308 310 310 310 304 306 308 309 310 312 308 307 309 310 311 312
309 309 311 315 317 318 317 319 316 316 315 313 319 316 315 310 309 308 308 307 308 305 306 309 310 307 306 306 306 308 307 310 308 312 313 310 310 312 312 310 308 308 308 310 311
306 306 309 311 312 315 316 315 316 315 316 316 317 317 316 316 312 315 314 311 308 309 306 307 309 311 307 307 310 306 307 307 308 311 314 315 314 311 312 312 307 306 310 313 310
304 307 307 310 313 312 313 312 314 314 315 316 314 316 316 315 315 315 316 316 309 309 311 308 310 313 313 310 306 306 307 309 312 312 310 313 314 312 312 311 310 310 309 311 313
304 306 307 312 312 311 311 311 313 313 313 313 314 314 314 314 315 314 314 313 313 312 312 310 313 316 315 310 309 310 312 309 311 311 313 314 314 312 311 311 311 308 310 310 311
302 303 307 309 310 311 310 311 311 311 312 313 313 312 313 313 312 312 312 310 306 308 309 311 314 315 315 314 310 309 308 310 312 314 313 312 312 311 310 311 311 311 311 310 311
299 302 303 306 307 308 308 308 309 309 309 310 311 311 311 312 311 310 305 305 305 304 303 303 307 309 309 306 306 308 309 310 312 312 312 312 311 310 310 310 310 309 307 305 304
296 299 298 299 300 304 307 306 307 307 308 309 309 302 301 304 303 303 297 299 299 300 298 299 301 304 302 302 304 307 306 308 309 309 311 312 313 310 303 302 299 300 298 297 298
294 295 296 298 297 299 301 303 303 300 302 302 298 298 298 298 295 295 295 295 296 296 295 296 295 293 298 299 299 301 302 304 306 308 307 309 302 299 295 296 294 297 296 296 296

GFSSW_850_thetae_048.txt.gz
Theta_e
311 311 311 312 312 312 313 313 313 313 313 313 313 313 313 312 312 312 313 312 313 315 315 316 317 316 316 318 318 317 312 312 314 314 316 315 314 316 316 316 316 317 317 317 317
311 311 312 312 312 313 313 313 313 314 314 314 314 314 314 314 314 314 314 313 312 314 315 315 317 317 316 317 318 314 308 310 310 312 314 315 314 316 315 315 314 316 317 317 317
312 312 312 313 313 313 313 313 314 314 314 314 314 314 314 314 314 313 315 314 313 313 314 314 316 317 316 317 317 313 313 310 313 315 317 315 314 317 314 311 315 317 317 317 316
313 313 313 313 313 313 313 313 313 314 314 314 314 314 314 314 311 314 314 314 313 313 314 313 315 316 314 314 316 316 315 315 316 317 317 314 315 314 315 317 318 317 317 317 317
312 312 311 311 311 310 310 310 310 311 311 312 312 313 313 313 314 315 314 314 313 313 314 314 315 315 314 313 314 314 314 317 317 317 317 317 314 313 315 317 318 317 316 316 316
307 307 308 308 309 309 310 311 311 311 310 309 309 308 309 310 314 315 314 314 313 314 314 314 314 314 315 314 313 313 313 313 314 315 315 314 315 314 316 316 315 315 315 315 315
310 310 311 312 312 313 314 314 315 315 315 314 312 308 307 310 311 312 314 313 313 314 314 314 313 314 314 313 314 313 311 308 310 312 311 313 312 309 315 314 315 315 315 315 316
313 313 314 315 315 316 317 317 316 316 314 312 313 311 309 313 311 310 310 311 312 313 312 312 312 313 314 313 311 309 309 310 309 309 312 313 311 311 314 314 314 315 317 316 316
314 317 319 320 320 320 321 321 320 319 318 312 310 310 311 314 313 311 309 312 312 312 311 311 311 312 312 308 307 306 307 307 307 309 310 310 310 309 312 313 314 315 315 315 315
319 321 321 321 322 322 322 321 320 316 313 310 309 309 312 314 313 312 313 312 312 312 311 311 311 308 306 307 308 308 307 306 306 308 308 309 308 308 313 311 312 313 313 314 314
322 322 323 322 322 322 322 322 316 314 311 312 312 312 313 312 312 313 313 313 312 311 308 310 307 308 309 307 308 307 305 305 306 307 309 308 309 308 310 311 311 311 312 311 313
322 323 323 322 322 323 322 319 312 312 310 318 318 315 314 312 313 313 312 312 311 309 307 308 308 308 307 307 308 308 308 308 308 308 306 307 309 309 309 309 311 311 312 312 312
323 323 323 323 323 322 321 319 312 308 309 314 313 311 312 311 309 310 312 311 309 308 307 309 309 309 308 308 308 307 308 309 308 307 306 306 308 308 308 309 310 311 313 312 312
323 324 324 322 322 321 321 320 311 310 310 309 308 309 309 309 309 309 311 311 309 309 307 307 308 309 308 309 308 309 307 307 308 309 310 308 311 310 310 307 308 310 311 313 314
324 323 323 324 324 322 321 320 319 313 323 312 308 310 311 308 309 309 310 310 308 308 307 308 308 309 309 309 307 309 309 308 308 308 307 308 308 311 307 309 308 308 312 315 314
322 320 320 322 321 321 318 318 317 315 324 314 308 309 309 309 309 309 309 310 309 308 307 307 308 307 307 307 306 307 309 307 304 306 310 308 309 313 308 308 309 308 312 314 314
320 319 321 322 322 320 319 316 318 320 315 312 308 308 308 307 309 307 308 308 309 311 309 307 307 307 308 309 307 308 308 310 309 309 313 307 308 312 311 309 307 308 312 313 313
319 320 321 320 321 320 318 317 320 319 317 313 311 310 313 309 311 307 306 307 306 307 305 310 315 308 306 308 309 307 308 311 313 314 314 306 308 313 307 308 309 311 311 311 311
318 318 317 319 319 319 318 319 318 319 318 318 318 318 317 312 311 310 306 308 308 305 311 308 310 307 305 307 307 307 309 309 311 308 309 311 308 310 312 310 306 307 309 310 309
312 310 312 314 318 318 317 318 314 315 316 314 318 316 315 314 311 309 310 307 308 305 306 310 312 307 306 306 306 307 306 310 308 312 313 311 312 313 312 312 308 307 308 310 312
307 306 309 311 311 316 317 315 314 315 315 316 316 316 315 314 311 314 313 310 307 309 305 307 308 313 307 306 308 306 307 307 307 310 314 315 314 312 312 312 310 306 309 310 311
304 305 307 309 312 312 313 312 312 313 315 314 315 316 316 314 315 316 316 313 311 308 311 307 311 312 312 309 306 307 309 309 313 314 312 313 313 311 309 310 310 311 308 308 307
303 305 306 311 310 310 309 310 311 311 311 313 314 313 314 315 315 313 312 311 310 311 313 311 312 315 313 310 307 309 309 308 310 311 313 313 313 311 310 309 309 302 302 303 302
302 302 305 308 308 309 310 310 310 310 310 311 312 312 312 312 312 313 312 309 305 307 308 309 310 313 314 312 308 310 308 307 307 308 310 312 312 309 308 309 305 300 298 297 297
299 301 301 304 304 306 308 308 308 308 309 309 309 310 311 311 310 310 305 302 302 302 302 302 304 306 304 303 304 304 303 302 303 304 306 306 306 306 299 295 295 298 296 296 295
297 298 298 298 299 301 304 305 305 305 306 307 307 307 303 307 304 303 298 299 298 298 296 297 297 298 298 298 299 299 299 299 299 300 301 302 305 294 294 293 293 296 296 294 292
293 294 295 296 296 297 298 301 300 299 299 299 297 299 298 299 295 295 295 295 295 295 294 295 294 288 296 297 295 293 294 295 296 296 296 300 294 293 292 292 292 294 293 292 291

GFSSW_850_thetae_054.txt.gz
Theta_e
310 310 311 311 311 312 312 312 312 313 313 313 313 314 314 314 314 314 314 313 312 312 314 315 316 316 316 316 317 317 321 321 320 319 319 317 318 315 316 317 315 317 318 318 317
310 311 311 311 312 312 312 312 313 313 313 313 313 314 314 314 314 314 314 314 313 312 313 314 315 316 317 318 318 319 321 320 318 318 318 317 317 317 317 317 317 316 317 317 317
311 311 312 312 312 312 312 313 313 313 313 313 313 313 313 313 314 313 313 313 313 313 313 314 314 316 317 317 318 318 320 319 316 315 314 315 316 316 317 318 317 317 317 317 317
312 312 312 312 312 312 312 312 312 312 312 311 311 311 311 310 316 313 314 314 314 313 313 314 314 316 318 318 317 318 318 317 317 316 316 316 316 316 316 316 316 316 316 316 315
311 311 310 310 310 310 310 310 310 311 311 312 312 312 310 309 311 313 314 314 313 313 313 313 314 316 317 316 315 317 317 316 316 315 316 316 316 317 316 315 316 315 314 314 314
308 308 308 308 309 310 311 312 313 315 316 317 317 316 315 310 311 311 312 313 313 313 313 313 314 314 315 315 316 314 314 315 314 315 315 314 315 313 315 315 314 314 313 314 314
310 311 311 312 313 314 315 316 317 317 317 317 316 316 313 317 316 313 311 311 312 313 313 313 313 314 314 315 313 313 315 315 314 313 314 312 315 314 314 314 313 313 314 313 313
313 313 313 314 315 316 317 317 317 317 317 317 317 316 312 314 314 314 311 309 311 313 313 313 313 313 314 312 313 313 313 315 314 312 312 314 315 316 314 312 313 314 314 314 314
313 314 315 316 317 319 320 320 319 319 318 318 316 313 312 313 312 313 312 310 310 311 312 311 311 312 312 314 314 313 315 315 313 312 312 314 315 315 313 313 313 313 313 313 313
315 316 318 319 320 321 321 321 321 319 318 316 313 311 312 312 312 312 312 311 311 311 311 311 312 313 312 314 317 319 316 314 313 314 312 312 313 313 312 311 312 312 313 313 312
319 320 320 321 322 322 322 322 319 318 315 315 313 313 314 313 312 312 312 311 311 311 313 311 313 315 316 315 315 313 313 314 314 314 313 313 313 313 313 313 313 312 313 313 312
321 321 322 322 322 323 322 322 320 316 315 320 320 318 315 312 312 312 311 311 311 314 310 312 313 314 311 310 311 312 313 314 314 313 310 313 313 313 314 313 314 313 313 313 313
320 321 322 323 323 322 322 321 321 318 313 316 314 313 312 312 312 312 312 311 312 312 312 316 317 310 310 312 311 312 312 314 313 312 312 312 316 315 315 312 312 312 312 312 312
321 322 322 322 322 321 321 320 319 318 321 319 309 310 309 308 308 308 310 310 310 313 312 312 310 310 310 311 312 313 311 311 311 312 316 311 317 317 316 315 315 313 313 312 311
321 322 322 322 322 321 321 318 318 314 328 311 308 310 310 308 309 309 309 310 311 310 311 313 310 310 311 312 310 313 309 310 310 312 311 314 314 318 312 314 314 313 313 313 311
323 323 323 320 320 321 321 319 318 322 327 316 308 310 310 309 308 309 309 309 308 310 309 311 307 309 311 308 309 308 310 310 309 311 316 316 315 317 315 314 313 314 313 313 309
322 321 322 320 319 320 319 319 321 325 317 312 311 311 311 312 310 309 311 311 313 316 315 313 314 309 308 311 308 310 312 317 318 318 319 312 313 314 314 313 314 312 310 307 306
320 321 320 320 320 320 318 319 322 320 320 316 312 312 320 316 314 310 310 314 310 311 315 317 318 310 308 312 315 313 314 317 321 322 321 314 316 316 315 313 310 306 306 305 305
318 318 317 318 319 320 318 320 320 320 319 320 319 321 320 317 317 315 314 316 315 311 316 317 316 309 307 309 312 314 313 313 316 317 316 316 316 316 314 310 308 308 308 306 304
316 315 316 317 317 319 318 320 318 316 317 317 318 318 318 316 316 314 314 312 312 309 308 314 315 313 312 307 307 310 309 313 312 317 320 316 315 315 314 310 309 307 306 304 302
309 310 311 314 315 315 317 317 316 314 316 316 318 318 317 315 315 315 313 313 310 307 307 309 313 314 311 310 312 310 310 310 309 313 317 318 316 313 311 308 306 305 302 300 299
306 308 308 310 314 314 315 314 312 313 313 313 314 315 315 315 314 313 313 313 311 312 314 313 312 317 314 313 310 310 312 312 314 315 314 314 315 314 311 307 300 299 298 297 295
304 305 306 311 312 312 310 310 310 310 311 311 312 312 312 312 312 311 312 310 309 312 313 312 312 317 314 311 309 311 312 311 312 312 315 316 315 310 308 305 298 297 298 296 295
303 306 305 309 309 309 310 309 310 309 310 310 310 310 310 311 310 310 310 311 308 306 306 308 311 313 315 312 311 311 310 310 308 308 310 310 309 306 304 301 297 295 294 295 294
301 302 303 307 308 308 308 308 308 308 308 309 308 309 310 311 309 310 308 304 303 299 299 303 308 308 308 303 302 303 303 302 302 302 304 303 303 302 298 294 293 292 292 291 293
298 299 299 300 300 303 305 306 305 305 306 305 306 305 305 307 307 306 302 302 304 298 299 298 302 300 300 301 301 301 299 298 298 298 298 299 298 295 293 291 291 291 291 291 291
295 296 296 296 298 301 301 302 301 301 297 299 300 301 301 301 297 297 297 297 298 299 298 298 299 299 300 298 295 296 298 298 297 296 296 296 297 292 291 291 290 290 291 290 291

GFSSW_850_thetae_060.txt.gz
Theta_e
310 310 310 311 311 311 311 312 312 312 312 312 313 313 313 313 313 314 314 315 314 313 312 314 315 316 317 320 319 320 321 320 321 321 321 320 319 319 319 318 318 318 318 318 318
310 310 311 311 311 312 312 312 312 312 312 312 312 313 313 313 313 314 316 314 313 312 312 313 317 318 319 320 321 320 322 321 319 319 317 318 317 317 317 317 318 318 318 318 318
310 311 311 311 312 312 312 312 312 312 312 312 312 312 311 311 312 317 314 313 313 313 314 316 317 317 318 319 320 320 320 319 318 318 318 317 317 317 317 316 318 318 317 318 318
311 312 312 312 312 311 311 311 311 311 311 311 312 312 313 313 316 314 313 314 313 313 313 314 316 317 318 318 319 318 319 319 319 318 318 317 317 317 317 317 317 317 317 317 317
312 311 311 310 310 309 309 309 310 311 312 314 316 317 317 315 314 314 313 312 313 313 313 315 316 317 317 318 317 317 318 318 318 317 317 317 317 316 317 317 317 317 317 316 316
309 309 308 308 308 309 310 312 314 316 317 318 318 318 317 316 317 316 313 311 312 313 313 315 316 316 316 316 316 317 316 316 316 316 316 316 316 316 316 316 316 316 316 316 316
310 310 310 311 312 313 314 315 316 317 317 317 317 318 316 317 318 318 317 311 312 313 314 315 315 315 315 316 315 316 314 314 315 316 315 315 314 315 317 316 316 316 316 317 316
314 313 313 314 314 315 316 316 316 316 316 317 318 318 315 316 315 314 314 314 313 312 313 315 315 314 315 316 316 315 314 315 317 316 314 314 314 315 317 317 316 316 316 315 315
314 314 314 314 315 315 316 316 316 317 318 318 317 314 315 314 313 313 311 311 312 311 312 313 313 314 315 315 313 313 314 316 318 316 314 313 314 315 317 317 316 316 315 316 316
314 314 314 315 316 316 317 318 318 318 319 318 315 313 314 313 313 312 312 311 311 312 312 312 313 314 313 312 314 317 315 317 317 317 316 315 314 315 316 316 315 315 316 316 315
315 315 316 317 319 319 319 321 320 319 317 318 317 316 313 313 312 313 312 311 312 313 314 313 313 313 314 313 314 315 316 316 316 316 315 315 314 313 315 315 315 316 317 315 311
316 317 318 319 320 321 322 322 319 318 317 319 318 319 318 316 315 314 313 312 312 313 313 313 313 315 315 316 316 314 315 315 316 316 314 313 313 313 313 314 315 315 315 312 311
317 319 320 321 321 322 322 322 322 321 317 322 320 318 316 316 316 317 313 312 313 314 315 315 317 316 316 315 316 315 316 316 316 314 313 313 313 314 317 317 316 314 310 309 308
318 319 320 320 320 322 322 322 322 320 321 322 316 312 311 312 313 312 313 313 315 316 316 317 314 314 315 316 315 315 313 312 313 313 315 312 313 314 314 315 312 310 309 307 306
319 320 320 320 323 323 321 321 320 318 328 316 311 311 310 310 310 310 309 311 314 314 314 317 312 312 313 314 314 314 312 312 312 312 312 314 313 313 316 313 310 308 307 306 305
320 321 321 321 321 322 322 318 318 321 326 314 311 312 311 310 310 309 310 310 311 312 312 312 310 311 312 312 311 311 311 311 311 312 315 314 314 316 313 312 309 308 307 306 304
322 322 321 322 322 322 322 318 322 326 320 315 313 312 313 312 311 311 311 311 313 313 313 313 312 311 311 313 311 310 312 316 317 315 317 315 316 315 316 312 309 308 307 304 302
316 317 320 320 319 318 320 318 320 322 322 317 314 316 314 316 316 313 314 315 313 315 315 317 318 312 311 314 315 312 314 316 319 319 317 314 315 316 310 310 309 307 305 303 301
316 315 315 317 318 315 319 319 321 320 320 323 320 318 318 319 319 317 316 318 316 314 316 315 315 311 311 313 313 315 314 314 314 307 311 313 314 314 311 309 308 306 303 302 300
318 317 316 314 318 315 317 315 318 318 318 318 320 321 324 322 321 319 319 315 313 312 312 313 312 311 309 310 310 311 310 313 313 313 309 311 311 311 311 309 305 303 302 300 299
316 316 315 316 317 317 317 316 317 316 316 317 317 319 320 319 319 317 316 313 312 311 311 312 312 311 311 312 313 310 310 310 311 312 313 314 311 310 306 304 302 301 300 299 298
312 310 312 314 315 316 317 316 316 315 315 315 315 316 318 316 314 315 317 313 312 312 312 312 314 314 313 311 311 310 311 312 314 314 310 311 312 306 303 302 301 300 299 299 299
308 310 309 312 316 316 314 313 313 314 314 315 315 315 313 313 313 311 311 311 311 313 313 313 312 311 308 310 312 311 310 311 311 311 313 314 312 310 306 300 299 298 296 295 294
307 309 308 311 313 313 314 314 312 311 311 313 313 311 312 311 310 311 310 309 306 305 307 310 312 308 308 309 310 309 308 308 308 309 309 309 309 306 306 304 297 295 294 293 292
305 307 307 308 309 311 311 311 312 312 310 309 310 310 310 309 308 309 309 308 305 303 303 307 310 309 309 309 305 305 304 304 304 304 305 303 303 303 302 300 294 294 292 292 291
305 304 304 305 307 309 309 309 310 309 309 309 309 309 309 308 308 308 305 305 306 301 302 301 302 301 300 302 301 302 302 302 302 302 302 302 302 299 294 294 294 292 291 291 291
300 300 302 304 304 308 308 308 308 308 302 302 305 305 305 304 302 300 300 300 301 301 300 300 298 296 297 300 297 296 298 299 299 299 299 298 296 293 294 293 292 291 291 290 291

GFSSW_850_thetae_063.txt.gz
Theta_e
310 310 310 310 311 311 311 311 311 312 312 312 312 312 313 313 313 313 313 314 315 313 312 314 315 315 317 319 320 319 314 315 317 316 316 318 316 317 318 318 318 317 317 317 317
310 310 310 310 311 311 311 312 312 312 312 312 312 312 312 312 313 314 315 315 314 312 311 313 316 317 317 319 320 317 314 316 316 315 315 315 315 315 315 315 315 316 317 317 317
310 310 310 311 311 312 312 312 312 312 312 311 311 311 312 312 313 316 313 313 313 313 314 314 316 317 317 317 319 318 315 316 318 318 317 317 317 316 315 313 316 316 317 317 317
310 311 311 311 312 311 311 311 311 311 310 311 312 313 315 315 311 314 313 314 313 313 313 314 315 316 316 315 318 317 318 318 318 317 317 317 317 316 316 316 315 316 316 317 317
311 311 311 311 311 310 310 309 310 311 313 315 317 317 318 317 317 315 314 313 312 313 312 313 315 316 315 315 315 315 316 317 317 317 316 316 315 315 316 316 316 316 316 316 316
310 309 309 309 308 309 309 311 313 316 317 318 318 318 317 315 318 318 317 314 311 312 313 314 315 315 315 315 314 314 315 315 315 315 315 314 314 315 315 316 316 316 316 315 316
310 310 310 310 311 312 314 315 316 317 318 317 317 317 317 318 318 318 318 316 312 312 313 314 315 315 314 313 315 315 313 311 313 314 313 315 312 312 316 316 316 317 317 316 316
316 315 314 314 314 314 315 316 316 316 316 316 317 318 316 317 316 316 315 314 313 312 313 315 315 315 314 314 314 314 312 312 312 314 314 313 312 312 316 316 317 316 316 315 310
314 314 314 315 315 315 315 315 315 316 316 317 317 315 315 315 314 314 313 312 312 312 312 313 314 313 314 312 311 311 310 312 313 314 313 312 311 312 316 315 315 314 315 311 312
314 314 313 313 313 314 315 316 317 317 318 318 316 314 315 314 314 313 312 311 312 311 311 312 312 310 309 309 310 312 312 314 314 315 314 313 311 310 315 313 314 314 311 310 310
315 315 315 315 315 316 316 319 318 319 317 319 317 316 314 314 313 312 312 311 312 312 311 312 309 310 309 309 309 313 314 313 312 313 313 313 312 312 313 313 312 312 309 308 307
316 316 316 316 318 319 319 321 319 317 318 318 318 318 317 316 315 314 313 312 312 311 311 311 311 310 311 312 313 313 313 312 312 313 313 312 311 311 312 312 312 308 308 307 306
318 317 317 318 320 320 320 321 321 321 318 321 320 320 318 318 316 315 313 312 311 311 311 311 313 312 313 315 314 314 313 314 314 311 310 311 310 311 312 308 307 306 307 306 305
322 318 318 319 319 319 321 321 322 320 318 319 317 315 315 314 314 313 311 313 313 312 312 312 313 314 314 314 313 314 313 312 312 311 312 311 311 311 309 307 305 305 304 304 304
325 319 318 319 320 322 321 321 321 317 326 315 311 311 310 313 310 309 311 312 313 313 313 315 312 311 312 313 312 313 310 311 311 310 311 311 311 310 309 308 306 304 303 302 302
325 320 320 320 320 322 322 321 318 321 325 316 309 311 309 309 309 309 309 310 311 311 311 312 310 310 310 311 310 309 311 310 309 309 313 312 311 312 309 308 306 304 302 301 300
322 320 320 320 321 321 322 317 320 322 320 313 311 310 310 309 309 309 309 309 309 310 311 311 310 310 310 311 309 310 310 313 314 312 315 312 311 312 309 307 306 303 301 300 299
321 320 320 320 320 321 321 318 320 321 322 314 311 311 311 310 310 310 310 311 309 311 312 315 316 310 310 312 313 309 310 312 314 317 315 310 314 312 307 305 303 301 300 299 299
317 316 316 319 317 319 318 316 319 319 320 323 319 316 317 315 314 313 311 313 313 309 315 314 314 310 310 311 311 313 312 311 313 301 307 311 310 309 306 303 302 301 300 299 298
316 316 316 314 313 316 314 314 317 318 318 318 320 320 321 321 320 318 319 314 313 311 312 311 312 309 309 310 308 311 309 312 309 308 307 310 310 310 307 303 301 300 299 299 298
317 317 317 315 313 315 316 314 315 316 317 317 317 319 319 319 318 320 317 312 310 310 310 311 310 309 309 311 311 309 309 310 310 310 311 309 310 306 306 302 300 300 300 299 298
316 313 315 316 315 315 316 315 316 315 316 315 315 315 317 317 316 316 317 312 311 311 311 311 311 309 311 309 310 310 310 310 314 312 308 310 311 304 301 300 301 300 300 298 298
311 310 310 314 316 315 314 315 314 314 314 315 315 315 314 314 315 314 312 310 311 309 312 312 309 305 304 308 308 311 310 310 310 309 307 313 310 303 302 300 300 299 296 294 293
307 308 309 311 313 314 315 314 315 313 314 314 314 313 312 312 312 311 311 309 306 307 309 310 309 304 303 308 308 308 307 306 306 305 306 308 307 306 304 301 295 294 293 292 292
306 306 308 308 310 311 312 313 314 312 312 313 313 313 312 312 311 311 309 306 303 305 304 307 308 309 304 304 305 304 305 303 303 303 302 304 301 301 300 298 293 292 291 291 290
305 304 304 304 307 310 311 311 311 311 310 310 310 309 310 309 307 306 305 306 305 301 301 300 300 299 297 302 301 301 300 300 300 301 300 301 301 298 294 293 291 291 291 290 290
302 303 303 303 302 306 308 309 308 307 303 304 307 305 306 303 302 301 301 300 301 300 300 299 297 294 296 298 295 294 297 298 298 298 298 298 297 292 293 293 291 291 291 290 290

GFSSW_850_thetae_069.txt.gz
Theta_e
310 310 310 310 310 310 310 311 311 311 311 312 312 312 313 313 313 313 313 313 314 314 313 312 314 314 314 316 318 317 310 311 313 314 314 314 313 316 315 315 316 316 316 316 315
309 309 309 310 310 310 310 311 311 311 312 312 312 312 312 312 313 313 314 313 314 313 312 312 313 315 315 317 319 313 307 309 311 314 314 315 315 315 315 314 314 314 315 315 315
309 309 309 310 310 310 311 311 311 311 311 311 311 311 312 312 314 314 313 313 312 312 312 314 315 315 316 316 318 314 311 312 315 316 316 315 315 315 314 312 314 314 315 315 315
309 309 309 310 310 311 311 311 311 311 310 310 311 313 315 316 311 314 313 313 312 312 313 314 315 315 314 313 315 316 316 315 316 316 315 314 315 315 315 315 314 314 314 313 313
309 310 310 310 311 311 310 310 309 309 310 313 315 317 318 318 318 317 314 314 313 313 312 313 313 314 313 313 313 313 314 315 316 315 314 314 314 314 314 314 314 312 313 315 315
310 310 310 310 310 310 309 309 309 311 314 316 317 318 317 316 319 318 318 316 315 312 312 312 313 314 314 313 312 312 313 313 314 314 313 312 311 313 314 314 313 313 313 313 313
310 310 310 309 309 309 309 311 313 315 316 317 317 317 317 319 319 318 318 317 315 311 311 312 313 314 313 312 313 314 312 309 311 311 311 312 311 310 315 313 311 312 312 312 311
315 315 315 315 315 314 314 314 315 316 316 316 316 317 315 317 317 317 317 316 316 314 312 313 313 314 314 313 311 311 310 311 311 311 312 312 314 312 314 314 309 310 310 309 309
315 314 314 314 315 315 315 315 315 315 315 315 317 316 316 316 316 316 316 314 313 312 313 313 314 314 313 309 308 308 311 309 310 312 311 311 312 313 312 313 308 307 306 306 306
316 315 315 314 314 313 313 314 315 315 316 317 317 315 316 315 315 314 313 312 312 312 312 312 313 308 307 307 312 311 309 308 310 312 312 312 311 309 309 311 306 304 304 304 303
318 317 316 314 314 314 314 315 317 317 317 317 316 316 315 315 314 313 312 311 311 311 308 311 307 309 309 308 309 310 308 310 310 310 312 311 310 304 305 305 303 302 302 301 301
322 321 319 317 315 315 315 317 318 316 317 316 317 317 317 313 313 312 311 312 311 309 308 308 308 308 308 308 309 309 310 309 310 310 311 311 310 304 304 303 303 301 300 300 300
323 323 323 319 316 316 316 316 318 319 319 319 318 318 317 317 314 313 311 311 310 309 309 310 311 310 309 309 309 309 309 311 312 311 309 310 309 307 303 302 301 300 299 299 299
324 324 323 321 317 318 317 317 318 321 315 315 317 317 317 316 314 315 312 312 310 310 309 309 310 311 309 311 310 312 310 311 312 311 313 308 311 306 303 302 300 299 298 298 299
324 324 325 324 320 319 319 318 319 319 324 316 314 312 313 316 312 310 310 311 310 310 310 313 311 311 311 312 311 313 310 310 309 308 309 309 309 308 303 304 301 298 297 297 297
324 324 325 323 319 319 319 319 320 319 325 316 310 309 310 309 309 309 310 311 312 311 310 312 309 309 311 308 310 308 308 307 306 307 311 309 310 309 305 305 300 298 297 297 297
321 324 324 324 320 319 319 319 319 322 320 316 310 308 309 308 308 308 308 309 311 313 312 311 310 309 309 309 308 309 310 313 313 311 314 308 309 309 305 303 301 297 296 296 297
321 323 324 324 320 320 320 316 318 319 320 309 310 308 309 307 308 308 307 309 308 309 310 313 314 310 308 309 309 308 310 313 313 314 314 309 312 310 301 301 299 298 297 297 297
320 322 323 322 320 320 317 321 319 318 317 313 312 311 309 309 308 308 306 307 308 306 313 312 313 309 307 309 309 309 311 309 309 295 308 310 308 304 300 298 298 297 297 297 297
321 320 319 320 320 319 319 320 316 317 319 316 316 314 311 312 311 308 308 309 312 306 309 312 313 309 309 308 307 309 308 312 308 309 308 309 309 309 301 299 298 296 297 298 297
318 316 316 318 318 317 318 315 315 316 317 319 318 318 318 318 315 313 312 312 310 309 308 309 313 311 309 309 309 309 309 308 309 308 308 306 308 305 303 300 299 297 298 299 298
317 314 312 314 312 312 310 312 314 316 317 316 316 317 319 317 318 318 318 314 310 310 310 309 312 314 311 307 307 308 307 308 310 308 305 307 310 300 303 301 300 299 300 299 299
314 314 314 314 312 312 313 314 314 316 316 316 315 315 315 316 316 317 316 311 311 309 311 310 311 312 310 308 308 310 309 307 307 305 304 306 306 300 300 300 300 301 300 299 298
312 311 311 311 312 312 313 315 315 315 315 315 314 314 314 315 314 315 315 309 308 310 310 310 307 306 310 308 307 309 307 307 306 305 303 307 304 302 300 300 299 299 299 298 297
306 307 308 311 310 313 312 313 313 315 313 314 314 314 313 315 315 314 311 307 304 307 308 309 311 308 306 306 307 304 304 305 304 305 310 308 307 303 301 299 299 299 297 295 291
303 304 305 304 306 312 312 313 313 313 314 314 313 314 313 313 313 313 309 307 307 302 306 304 310 307 307 303 306 306 306 306 305 305 303 304 305 300 302 300 297 297 294 291 291
301 301 303 303 305 308 310 310 312 311 311 311 312 311 313 312 308 305 307 307 305 304 305 304 303 304 306 295 296 303 301 304 306 301 304 303 302 289 290 292 294 293 292 291 290

GFSSW_850_thetae_072.txt.gz
Theta_e
310 310 310 310 310 310 310 310 310 311 311 311 312 312 312 313 313 313 313 313 313 313 313 313 313 313 314 316 317 316 307 308 312 312 314 314 313 314 315 314 315 315 315 314 314
309 309 309 309 309 310 310 310 310 311 311 311 312 312 312 312 313 313 314 313 313 314 312 312 313 314 315 317 318 311 306 308 310 312 314 314 314 315 314 313 314 314 314 314 314
309 309 309 309 309 310 310 310 311 311 311 311 311 311 312 312 314 313 312 312 312 311 311 312 315 314 315 316 317 312 310 309 313 314 315 314 314 315 314 313 313 312 313 313 313
309 309 309 309 309 310 310 310 311 311 310 310 311 312 314 316 312 314 312 312 312 312 312 313 314 314 313 313 314 315 314 313 315 315 315 314 314 314 314 313 313 312 312 313 314
309 309 309 309 310 310 310 310 310 310 310 310 313 315 317 318 317 317 315 313 313 312 312 313 313 313 312 312 312 314 313 314 315 314 314 313 313 313 314 312 311 312 313 313 312
309 309 310 310 310 310 310 309 309 309 310 313 316 317 317 316 318 318 318 317 315 313 312 312 312 313 313 312 312 311 312 312 313 313 312 312 311 313 309 311 312 312 312 311 311
311 310 310 310 310 309 309 309 310 312 314 316 317 317 317 319 319 318 318 317 317 314 312 311 312 313 313 312 312 313 311 308 310 311 310 311 311 310 310 311 311 310 310 309 309
315 313 313 313 314 314 314 314 315 315 316 316 316 316 316 317 317 317 317 317 316 313 312 312 312 314 314 313 310 310 309 311 311 310 311 311 313 308 310 311 308 307 307 307 307
315 315 315 315 315 315 315 315 315 315 315 315 315 316 316 316 316 316 315 315 315 314 313 313 314 313 312 308 308 307 311 309 310 310 310 310 312 307 309 309 305 304 304 304 304
317 316 316 315 315 314 314 313 314 314 315 315 316 315 316 316 315 315 314 314 312 312 313 313 312 307 306 307 312 310 309 307 309 311 311 312 311 305 305 306 302 302 301 302 303
320 318 317 316 315 314 314 314 316 316 316 316 316 316 315 315 315 313 312 312 312 312 309 310 308 309 309 307 309 309 308 310 309 310 312 311 310 304 303 302 301 300 300 300 300
323 322 321 319 318 316 315 315 315 316 316 316 316 316 315 313 313 312 312 312 311 309 307 307 307 309 307 308 308 309 309 308 308 309 310 310 307 303 302 301 300 300 299 299 300
324 324 323 323 321 319 317 316 315 318 318 319 316 316 316 316 314 313 312 311 309 307 307 308 310 308 308 308 308 307 308 308 310 310 309 309 308 304 302 300 299 299 299 299 299
321 324 325 322 322 322 319 319 316 320 316 315 316 318 316 316 312 315 312 312 309 309 308 308 308 310 309 310 308 309 307 309 310 311 313 308 311 305 303 301 298 297 298 298 298
321 322 324 324 323 322 322 320 317 320 321 314 314 312 313 315 312 310 310 310 309 309 310 312 310 309 311 311 308 311 309 309 309 309 308 308 308 307 302 301 299 297 297 297 297
322 321 324 323 323 322 323 319 319 318 323 318 310 309 311 309 309 308 309 310 311 310 310 310 309 309 310 308 309 306 307 307 305 306 310 309 309 308 304 304 300 297 297 296 296
321 321 321 323 321 322 320 320 320 319 319 316 311 308 311 308 308 308 308 308 312 313 312 310 310 308 308 308 307 308 310 312 313 311 313 307 308 310 304 302 300 297 296 296 295
320 320 321 321 323 322 319 317 319 318 320 309 308 307 311 307 308 307 308 310 308 310 311 314 316 309 306 308 310 308 309 313 314 313 313 308 311 311 301 301 301 298 297 296 295
320 320 320 321 322 322 316 321 319 317 317 311 310 310 308 308 308 307 306 308 309 307 314 312 313 308 306 307 308 308 310 309 309 296 307 309 309 302 299 297 297 296 296 296 295
318 319 319 321 322 319 318 321 317 315 318 312 317 312 311 309 309 308 306 306 308 307 309 312 314 308 307 308 307 308 307 313 309 310 310 309 309 309 301 298 296 295 295 296 296
320 318 318 319 320 317 320 319 316 315 318 315 316 316 311 311 310 308 309 310 309 307 308 309 311 309 308 308 309 308 309 308 310 309 309 307 307 304 303 299 297 296 296 297 297
318 314 315 317 316 310 313 313 313 315 317 316 316 317 317 316 315 311 311 314 309 308 308 308 312 310 309 306 307 308 308 309 314 310 306 306 308 300 301 300 298 297 297 298 298
316 314 313 314 317 309 310 312 313 316 317 317 317 315 315 317 318 317 316 310 310 310 311 310 311 308 312 310 308 309 307 306 307 306 306 308 307 300 300 299 299 298 298 298 298
311 313 311 313 313 312 311 310 314 314 315 313 314 314 314 314 313 315 316 309 310 310 310 310 309 308 312 311 307 307 308 307 308 311 308 307 304 303 299 299 298 299 300 299 298
304 308 308 311 311 312 311 311 312 314 314 314 313 312 314 315 314 313 313 307 305 310 310 310 312 308 307 308 308 304 303 306 307 307 310 309 307 305 302 301 300 301 300 299 298
301 303 304 305 306 312 312 313 312 312 313 311 311 312 312 309 312 312 311 310 310 303 308 308 312 309 310 304 308 310 308 306 306 306 303 304 304 302 302 301 299 301 299 298 298
301 301 304 302 303 308 311 312 312 312 312 311 311 311 312 311 310 305 307 308 307 306 307 306 306 307 311 297 301 307 304 307 307 304 306 306 307 295 295 297 299 299 298 298 296

GFSSW_850_thetae_075.txt.gz
Theta_e
310 309 309 309 309 309 310 310 310 310 311 311 311 312 312 312 313 313 313 313 313 313 313 313 313 313 313 315 316 314 308 308 310 311 313 313 314 314 314 314 315 313 312 312 314
310 309 309 309 309 309 310 310 310 310 311 311 311 312 312 312 313 313 313 313 313 313 313 312 312 313 314 316 316 310 307 308 308 310 313 314 314 314 314 314 313 313 312 313 313
309 309 309 309 309 309 310 310 310 310 311 311 311 311 312 312 314 313 312 312 312 311 311 312 314 313 314 315 315 312 310 309 311 313 314 314 314 314 313 312 311 312 312 312 312
309 309 309 309 309 309 309 310 310 310 311 311 311 311 312 314 312 313 312 312 312 312 312 313 313 313 311 312 314 313 313 312 314 315 314 314 314 313 313 311 311 311 311 312 313
308 308 309 309 309 309 310 310 310 310 310 310 310 312 315 317 316 316 316 313 313 312 312 313 313 312 311 311 312 313 313 313 314 314 314 313 313 312 309 308 309 310 311 312 312
309 309 309 309 310 310 310 310 310 310 309 310 313 316 317 316 317 317 317 317 316 314 312 312 312 312 312 312 311 311 311 312 313 313 312 311 310 312 307 308 309 310 310 310 310
311 310 310 310 310 310 310 310 310 310 312 314 315 317 317 318 318 318 318 318 317 315 313 312 312 312 313 311 311 312 311 308 310 310 310 310 309 308 307 308 309 309 308 308 309
316 316 315 314 314 313 314 314 314 315 315 316 316 316 317 318 318 318 317 317 316 315 312 311 311 313 313 312 310 310 308 312 311 310 310 310 312 306 306 308 306 306 306 306 307
317 316 316 315 315 315 315 315 315 315 315 315 315 315 315 316 316 316 315 315 315 314 313 312 313 312 312 308 309 307 313 309 310 310 309 309 311 304 306 307 304 303 304 304 305
318 317 317 316 316 315 315 314 314 314 314 314 315 315 315 315 315 315 315 314 314 313 313 313 312 307 305 308 313 311 309 308 309 310 309 310 309 304 303 304 301 301 301 302 304
322 320 319 319 318 317 315 315 315 315 315 315 316 315 315 315 314 313 313 313 312 312 310 310 308 310 309 307 309 308 308 310 308 308 311 309 309 303 302 301 300 299 300 300 301
324 323 322 321 321 320 318 315 314 315 315 315 315 315 316 314 313 312 312 312 311 309 306 306 308 309 308 306 308 307 308 308 307 308 310 309 309 303 302 300 300 299 299 299 299
323 323 323 324 322 321 321 319 316 317 318 317 315 316 316 315 314 313 313 311 309 307 306 308 310 307 307 307 308 307 308 308 310 310 308 309 309 304 300 299 299 298 299 299 299
323 322 321 323 321 322 322 322 318 317 315 315 316 317 315 315 312 314 313 312 308 309 307 307 307 309 307 308 308 308 306 307 309 310 312 308 315 305 302 300 298 297 298 297 296
321 322 322 321 322 322 323 322 320 318 322 314 314 313 313 315 312 309 310 310 308 308 309 310 308 308 310 310 307 312 307 307 309 309 309 308 311 307 302 302 299 297 297 297 295
321 323 322 321 321 321 322 320 318 318 321 317 310 309 311 310 309 308 309 310 310 309 309 310 309 308 309 308 308 305 307 306 305 306 311 310 313 309 304 305 300 297 297 296 295
320 321 322 321 321 321 320 318 320 319 318 316 312 308 311 308 308 308 308 309 311 312 312 310 309 306 307 308 306 308 310 314 312 311 314 306 309 312 304 302 301 298 296 296 294
320 321 320 320 321 320 319 319 318 317 317 308 308 308 312 307 308 307 308 309 308 310 310 313 317 307 305 311 310 307 312 315 314 313 312 307 310 310 301 301 301 299 298 296 294
319 320 319 320 320 320 318 321 319 318 315 310 309 310 310 308 310 306 307 308 309 308 317 313 314 307 306 306 310 308 311 309 309 297 307 309 308 302 298 299 298 297 296 295 294
317 319 319 320 320 319 318 322 319 315 315 312 318 313 312 308 310 307 306 306 309 308 310 312 314 308 307 307 307 308 307 312 311 312 310 310 309 311 301 298 297 296 295 295 295
317 317 318 318 318 317 320 319 319 316 317 314 318 319 313 310 310 309 310 308 305 306 309 309 312 309 307 307 308 308 308 309 310 311 312 308 308 304 303 300 298 297 296 295 295
316 316 317 319 317 314 319 317 315 315 315 317 315 317 316 311 310 312 312 309 308 306 309 308 311 310 308 306 306 307 308 309 313 310 306 307 310 300 301 300 298 297 296 296 296
315 316 315 317 319 316 309 311 313 315 316 317 317 316 316 314 314 311 310 310 309 306 309 310 313 315 314 309 307 308 307 307 307 308 308 313 310 300 299 299 299 297 296 297 297
308 313 311 312 314 316 314 312 313 311 315 314 315 314 315 316 315 316 315 310 310 310 310 311 310 311 316 311 307 308 307 305 309 311 309 312 305 303 299 299 298 298 297 297 297
304 307 307 311 312 313 311 310 312 313 313 312 313 312 314 312 312 311 313 307 307 311 310 311 313 310 305 305 306 302 304 306 307 309 314 308 307 304 303 300 299 300 297 297 297
303 304 303 303 305 311 313 313 312 312 314 313 312 310 312 309 311 309 309 309 310 306 310 309 312 309 309 307 309 308 307 305 305 306 305 306 307 303 303 302 300 300 299 297 298
301 301 302 302 302 306 310 312 312 311 312 309 310 310 311 310 310 311 310 309 309 308 308 308 308 310 311 302 304 309 306 307 307 303 307 307 307 297 298 301 301 301 298 298 297